Location: Cedar Brake
(32.2526°N, 97.8459°W)
Time: 20:22:52
(UTC+00:00)

Cosmos 1959 Rocket - Pass Details

Date: 22 April 2026
Orbit: 946 x 997 km, 82.9° (Epoch: 21 May)

Event Time Altitude Azimuth Distance (km) Brightness Sun altitude
Rises 01:51:10 0° 177° (S) 3,700 7.3 -10.0°
Reaches altitude 10° 01:53:42 10° 175° (S) 2,753 6.6 -10.5°
Maximum altitude 01:59:59 70° 93° (E) 1,053 4.5 -11.8°
Drops below altitude 10° 02:06:15 10° 11° (N) 2,748 7.0 -13.0°
Sets 02:08:46 0° 9° (N) 3,693 7.7 -13.5°
